Location: Newark
(15.4608°S, 41.1635°W)
Time: 13:56:25
(UTC+00:00)

Envisat - Pass Details

Date: 22 June 2021
Orbit: 764 x 766 km, 98.1° (Epoch: 25 July)

Event Time Altitude Azimuth Distance (km) Brightness Sun altitude
Rises 08:07:38 0° 354° (N) 3,209 6.4 -14.8°
Reaches altitude 10° 08:10:05 10° 345° (NNW) 2,290 5.5 -14.3°
Maximum altitude 08:14:40 35° 280° (W) 1,216 3.6 -13.3°
Enters shadow 08:19:02 11° 216° (SW) 2,216 4.9 -12.3°
